IGO9592 VOBL-VABB

Flight info

Callsign IGO9592
Flight time N/A
Altitude 38000
Route VAGPU8A VAGPU Q8 AGELA MOLGO2A
Aircraft A20N/M-SDE2E3FGHIRWXY/LB1

Departure

Time 2026-05-06 14:49
Airport Kempegowda International Airport Bengaluru (VOBL)

Arrival

Time N/A
Airport Chhatrapati Shivaji Maharaj International Airport (VABB)
Time Latitude Longitude Altitude Speed Heading
2026-05-06 13:40 13.19779 77.71996 2906 ft 0 kts 248°
2026-05-06 14:14 13.19782 77.72002 2924 ft 1 kts 248°
2026-05-06 14:14 13.19785 77.72010 2926 ft 1 kts 248°
2026-05-06 14:15 13.19788 77.72017 2925 ft 1 kts 248°
2026-05-06 14:15 13.19790 77.72025 2924 ft 1 kts 253°
2026-05-06 14:15 13.19794 77.72040 2924 ft 3 kts 261°
2026-05-06 14:15 13.19796 77.72062 2925 ft 4 kts 269°
2026-05-06 14:16 13.19796 77.72067 2925 ft 0 kts 272°
2026-05-06 14:16 13.19796 77.72070 2925 ft 0 kts 274°
2026-05-06 14:17 13.19798 77.72066 2925 ft 1 kts 296°
2026-05-06 14:17 13.19797 77.72068 2925 ft 5 kts 287°
2026-05-06 14:17 13.19812 77.72086 2925 ft 2 kts 147°
2026-05-06 14:23 13.19811 77.72086 2925 ft 1 kts 147°
2026-05-06 14:24 13.19808 77.72092 2929 ft 0 kts 111°
2026-05-06 14:24 13.19809 77.72099 2930 ft 3 kts 91°
2026-05-06 14:24 13.19818 77.72131 2930 ft 7 kts 66°
2026-05-06 14:24 13.19825 77.72193 2928 ft 11 kts 89°
2026-05-06 14:25 13.19825 77.72215 2928 ft 3 kts 89°
2026-05-06 14:25 13.19825 77.72224 2928 ft 0 kts 89°
2026-05-06 14:25 13.19826 77.72230 2928 ft 3 kts 89°
2026-05-06 14:26 13.19825 77.72265 2927 ft 7 kts 90°
2026-05-06 14:26 13.19825 77.72274 2927 ft 0 kts 90°
2026-05-06 14:27 13.19825 77.72288 2927 ft 4 kts 90°
2026-05-06 14:27 13.19825 77.72315 2926 ft 0 kts 90°
2026-05-06 14:27 13.19824 77.72334 2926 ft 5 kts 92°
2026-05-06 14:28 13.19823 77.72379 2926 ft 8 kts 91°
2026-05-06 14:28 13.19848 77.72435 2925 ft 9 kts 28°
2026-05-06 14:28 13.19924 77.72444 2924 ft 13 kts
2026-05-06 14:28 13.20025 77.72446 2924 ft 13 kts 360°
2026-05-06 14:29 13.20084 77.72445 2924 ft 0 kts 359°
2026-05-06 14:29 13.20096 77.72445 2923 ft 4 kts 359°
2026-05-06 14:29 13.20115 77.72445 2923 ft 1 kts 359°
2026-05-06 14:30 13.20126 77.72445 2923 ft 3 kts
2026-05-06 14:30 13.20128 77.72445 2923 ft 1 kts
2026-05-06 14:30 13.20145 77.72445 2923 ft 4 kts
2026-05-06 14:31 13.20187 77.72446 2923 ft 8 kts
2026-05-06 14:31 13.20244 77.72447 2919 ft 7 kts
2026-05-06 14:31 13.20276 77.72448 2923 ft 0 kts
2026-05-06 14:31 13.20288 77.72448 2923 ft 3 kts 359°
2026-05-06 14:32 13.20321 77.72437 2923 ft 7 kts 328°
2026-05-06 14:32 13.20360 77.72396 2923 ft 10 kts 311°
2026-05-06 14:32 13.20411 77.72335 2923 ft 12 kts 311°
2026-05-06 14:32 13.20433 77.72250 2923 ft 13 kts 273°
2026-05-06 14:33 13.20434 77.72151 2926 ft 14 kts 270°
2026-05-06 14:33 13.20435 77.72047 2928 ft 15 kts 270°
2026-05-06 14:33 13.20436 77.71938 2931 ft 16 kts 270°
2026-05-06 14:33 13.20437 77.71831 2933 ft 15 kts 271°
2026-05-06 14:34 13.20438 77.71724 2935 ft 16 kts 270°
2026-05-06 14:34 13.20439 77.71608 2933 ft 16 kts 271°
2026-05-06 14:34 13.20440 77.71489 2938 ft 17 kts 270°
2026-05-06 14:34 13.20440 77.71417 2942 ft 0 kts 270°
2026-05-06 14:35 13.20440 77.71416 2942 ft 0 kts 270°
2026-05-06 14:36 13.20440 77.71415 2942 ft 1 kts 270°
2026-05-06 14:36 13.20441 77.71404 2942 ft 2 kts 271°
2026-05-06 14:36 13.20441 77.71381 2939 ft 4 kts 273°
2026-05-06 14:36 13.20442 77.71346 2935 ft 6 kts 271°
2026-05-06 14:37 13.20450 77.71299 2937 ft 7 kts 295°
2026-05-06 14:37 13.20495 77.71276 2939 ft 9 kts 345°
2026-05-06 14:37 13.20526 77.71226 2946 ft 9 kts 278°
2026-05-06 14:37 13.20525 77.71154 2947 ft 11 kts 269°
2026-05-06 14:38 13.20525 77.71073 2949 ft 12 kts 271°
2026-05-06 14:38 13.20527 77.70984 2951 ft 13 kts 271°
2026-05-06 14:38 13.20527 77.70883 2953 ft 14 kts 270°
2026-05-06 14:38 13.20529 77.70777 2956 ft 15 kts 271°
2026-05-06 14:39 13.20530 77.70667 2955 ft 16 kts 271°
2026-05-06 14:39 13.20531 77.70551 2961 ft 14 kts 272°
2026-05-06 14:39 13.20531 77.70456 2952 ft 14 kts 269°
2026-05-06 14:39 13.20532 77.70357 2966 ft 15 kts 271°
2026-05-06 14:40 13.20533 77.70249 2969 ft 15 kts 270°
2026-05-06 14:40 13.20533 77.70139 2971 ft 16 kts 270°
2026-05-06 14:40 13.20535 77.70023 2973 ft 17 kts 270°
2026-05-06 14:40 13.20535 77.69899 2976 ft 17 kts 270°
2026-05-06 14:41 13.20537 77.69774 2979 ft 18 kts 270°
2026-05-06 14:41 13.20537 77.69645 2982 ft 19 kts 270°
2026-05-06 14:41 13.20539 77.69507 2984 ft 19 kts 270°
2026-05-06 14:41 13.20541 77.69367 2987 ft 20 kts 270°
2026-05-06 14:42 13.20542 77.69231 2991 ft 19 kts 270°
2026-05-06 14:42 13.20543 77.69090 2994 ft 20 kts 270°
2026-05-06 14:42 13.20543 77.68946 2997 ft 20 kts 270°
2026-05-06 14:42 13.20544 77.68806 3000 ft 17 kts 270°
2026-05-06 14:43 13.20544 77.68688 3003 ft 13 kts 270°
2026-05-06 14:43 13.20582 77.68621 3005 ft 8 kts 338°
2026-05-06 14:43 13.20587 77.68619 3005 ft 0 kts 341°
2026-05-06 14:43 13.20594 77.68618 3005 ft 2 kts 352°
2026-05-06 14:44 13.20599 77.68618 3005 ft 0 kts 355°
2026-05-06 14:44 13.20600 77.68618 3005 ft 0 kts 355°
2026-05-06 14:47 13.20616 77.68617 3005 ft 6 kts 359°
2026-05-06 14:47 13.20669 77.68624 3005 ft 10 kts 17°
2026-05-06 14:47 13.20716 77.68684 3004 ft 11 kts 89°
2026-05-06 14:47 13.20716 77.68700 3003 ft 4 kts 90°
2026-05-06 14:48 13.20716 77.68740 3003 ft 8 kts 90°
2026-05-06 14:48 13.20714 77.68955 2998 ft 69 kts 91°
2026-05-06 14:48 13.20707 77.69710 2983 ft 141 kts 91°
2026-05-06 14:48 13.20683 77.70852 3345 ft 166 kts 92°
2026-05-06 14:49 13.20660 77.72025 4235 ft 166 kts 92°
2026-05-06 14:49 13.20639 77.73242 4779 ft 181 kts 92°
2026-05-06 14:49 13.20613 77.74608 5188 ft 203 kts 92°
2026-05-06 14:49 13.20584 77.76152 5570 ft 228 kts 92°
2026-05-06 14:50 13.20567 77.77865 6038 ft 252 kts 87°
2026-05-06 14:50 13.21086 77.79628 6500 ft 273 kts 59°
2026-05-06 14:50 13.22399 77.81062 6878 ft 278 kts 34°
2026-05-06 14:50 13.24104 77.82027 7042 ft 281 kts 30°
2026-05-06 14:51 13.25809 77.83032 7394 ft 288 kts 22°
2026-05-06 14:51 13.27712 77.83960 7491 ft 318 kts 16°
2026-05-06 14:51 13.29856 77.84667 7590 ft 344 kts
2026-05-06 14:51 13.32365 77.84652 7490 ft 376 kts 342°
2026-05-06 14:52 13.34849 77.83524 7416 ft 401 kts 330°
2026-05-06 14:52 13.37283 77.82050 7738 ft 408 kts 321°
2026-05-06 14:52 13.39437 77.80246 7993 ft 404 kts 318°
2026-05-06 14:52 13.41729 77.78521 8509 ft 404 kts 324°
2026-05-06 14:53 13.44148 77.77079 9227 ft 401 kts 329°
2026-05-06 14:53 13.46614 77.75854 10023 ft 395 kts 332°
2026-05-06 14:53 13.49049 77.74558 10752 ft 393 kts 330°
2026-05-06 14:53 13.51524 77.73362 11534 ft 389 kts 331°
2026-05-06 14:54 13.53898 77.72009 12152 ft 393 kts 324°
2026-05-06 14:54 13.56128 77.70486 12653 ft 397 kts 320°
2026-05-06 14:54 13.58393 77.68750 13226 ft 400 kts 317°
2026-05-06 14:54 13.60671 77.67068 13814 ft 402 kts 323°
2026-05-06 14:55 13.63120 77.65667 14408 ft 401 kts 334°
2026-05-06 14:55 13.65696 77.64711 15225 ft 394 kts 336°
2026-05-06 14:55 13.68273 77.63828 16125 ft 384 kts 332°
2026-05-06 14:55 13.70631 77.62609 17016 ft 375 kts 321°
2026-05-06 14:56 13.72722 77.61086 17775 ft 370 kts 315°
2026-05-06 14:56 13.74780 77.59488 18439 ft 366 kts 318°
2026-05-06 14:56 13.76848 77.58013 19132 ft 358 kts 318°
2026-05-06 14:56 13.78807 77.56535 19888 ft 348 kts 314°
2026-05-06 14:57 13.80787 77.55144 20607 ft 339 kts 321°
2026-05-06 14:57 13.82803 77.54019 21431 ft 325 kts 319°
2026-05-06 14:57 13.84689 77.52794 22205 ft 308 kts 311°
2026-05-06 14:57 13.86389 77.51567 22794 ft 295 kts 313°
2026-05-06 14:58 13.88137 77.50501 23017 ft 292 kts 315°
2026-05-06 14:58 13.90009 77.49569 22830 ft 303 kts 324°
2026-05-06 14:58 13.92010 77.48898 22854 ft 308 kts 333°
2026-05-06 14:58 13.94163 77.48698 22840 ft 316 kts 353°
2026-05-06 14:59 13.96324 77.48826 23257 ft 305 kts 341°
2026-05-06 14:59 13.98421 77.48498 23323 ft 305 kts 334°
2026-05-06 14:59 14.00445 77.47951 23423 ft 303 kts 320°
2026-05-06 14:59 14.02253 77.46824 23436 ft 304 kts 306°
2026-05-06 15:00 14.03848 77.45429 23648 ft 297 kts 300°
2026-05-06 15:00 14.05266 77.43882 23708 ft 298 kts 297°
2026-05-06 15:00 14.06828 77.42411 23504 ft 312 kts 316°
2026-05-06 15:00 14.08736 77.41336 23690 ft 308 kts 314°
2026-05-06 15:01 14.10441 77.40106 23962 ft 300 kts 304°
2026-05-06 15:01 14.11938 77.38592 24024 ft 301 kts 295°
2026-05-06 15:01 14.13189 77.36859 23972 ft 305 kts 293°
2026-05-06 15:01 14.14611 77.35221 23860 ft 313 kts 307°
2026-05-06 15:02 14.16351 77.33909 24176 ft 304 kts 309°
2026-05-06 15:02 14.18004 77.32634 24318 ft 302 kts 309°
2026-05-06 15:02 14.19839 77.31469 24252 ft 308 kts 320°
2026-05-06 15:02 14.21847 77.30612 24224 ft 313 kts 329°
2026-05-06 15:03 14.23948 77.30095 24328 ft 314 kts 335°
2026-05-06 15:03 14.26043 77.29583 24580 ft 305 kts 326°
2026-05-06 15:03 14.28005 77.28824 24628 ft 305 kts 319°
2026-05-06 15:03 14.29889 77.27776 24547 ft 308 kts 313°
2026-05-06 15:04 14.31622 77.26499 24632 ft 307 kts 306°
2026-05-06 15:04 14.33163 77.25048 24715 ft 305 kts 299°
2026-05-06 15:04 14.34641 77.23409 24699 ft 309 kts 300°
2026-05-06 15:04 14.36149 77.21807 24714 ft 311 kts 302°
2026-05-06 15:05 14.37675 77.20278 24795 ft 311 kts 303°
2026-05-06 15:05 14.39327 77.18762 24827 ft 314 kts 311°
2026-05-06 15:05 14.41228 77.17584 24611 ft 327 kts 325°
2026-05-06 15:05 14.43440 77.16931 24430 ft 341 kts 343°
2026-05-06 15:06 14.45834 77.16955 24492 ft 348 kts 360°
2026-05-06 15:06 14.48192 77.17456 24879 ft 339 kts 354°